Grant County, OR

2:48 AM PST on December 13, 2019 (GMT -0800)
Grant County Regional

Weather History for KGCD - May, 2019

Change the Weather History Date:

Thursday, May 23, 2019

  Actual Average (KBNO) Record (KBNO)
Temperature  
Mean Temperature 54 °F -  
Max Temperature 68 °F 67 °F 89 °F (2001)
Min Temperature 41 °F 36 °F 19 °F (2013)
Degree Days  
Heating Degree Days 10    
Growing Degree Days 4 (Base 50)    
Moisture  
Dew Point 40 °F    
Average Humidity 60    
Maximum Humidity 93    
Minimum Humidity 34    
Precipitation  
Precipitation 0.00 in - - ()
Sea Level Pressure  
Sea Level Pressure 29.91 in    
Wind  
Wind Speed 6 mph (North)    
Max Wind Speed 21 mph    
Max Gust Speed 26 mph    
Visibility 10 miles    
Events      
Averages and records for this station are not official NWS values.
T = Trace of Precipitation, MM = Missing Value Source: NWS Daily Summary

Daily Weather History Graph

Daily Weather History Graph

Search for Another Location

Airport or City:

Astronomy

May. 23, 2019 Rise Set
Actual Time 5:20 AM PDT 8:24 PM PDT
Civil Twilight 4:46 AM PDT 8:59 PM PDT
Nautical Twilight 4:01 AM PDT 9:44 PM PDT
Astronomical Twilight 3:08 AM PDT 10:38 PM PDT
Moon 12:12 AM PDT (5/23) 9:28 AM PDT (5/23)
Length of Visible Light 16h 13m
Length of Day
15h 03m
Waning Gibbous, 76% of the Moon is Illuminated
May 23
Waning Gibbous
May 26
Last Quarter
Jun 3
New
Jun 9
First Quarter
Jun 17
Full

Hourly Weather History & Observations

Time (PDT) Temp. Windchill Dew Point Humidity Pressure Visibility Wind Dir Wind Speed Gust Speed Precip Events Conditions
12:15 AM 49.3 °F - 41.9 °F 76% 29.96 in 10.0 mi Calm Calm - N/A   Overcast
12:35 AM 49.3 °F - 41.9 °F 76% 29.96 in 10.0 mi Calm Calm - N/A   Overcast
12:55 AM 48.4 °F - 42.6 °F 80% 29.97 in 10.0 mi Calm Calm - N/A   Overcast
1:15 AM 48.2 °F - 42.8 °F 82% 29.97 in 10.0 mi Calm Calm - N/A   Overcast
1:35 AM 48.9 °F - 42.3 °F 78% 29.96 in 10.0 mi Calm Calm - N/A   Overcast
1:55 AM 48.2 °F - 42.4 °F 80% 29.96 in 10.0 mi Calm Calm - N/A   Overcast
2:15 AM 47.3 °F - 41.9 °F 82% 29.96 in 10.0 mi East 3.5 mph - N/A   Scattered Clouds
2:35 AM 46.2 °F 45.0 °F 41.5 °F 84% 29.96 in 10.0 mi East 3.5 mph - N/A   Mostly Cloudy
2:55 AM 46.4 °F 44.3 °F 42.1 °F 85% 29.97 in 10.0 mi East 4.6 mph - N/A   Overcast
3:15 AM 46.4 °F 43.5 °F 42.6 °F 87% 29.97 in 10.0 mi East 5.8 mph - N/A   Overcast
3:35 AM 45.5 °F 42.5 °F 42.8 °F 90% 29.96 in 10.0 mi ENE 5.8 mph - N/A   Overcast
3:55 AM 44.2 °F 40.3 °F 42.3 °F 93% 29.96 in 10.0 mi East 6.9 mph - N/A   Scattered Clouds
4:15 AM 43.7 °F 39.7 °F 41.7 °F 93% 29.97 in 10.0 mi East 6.9 mph - N/A   Scattered Clouds
4:35 AM 43.5 °F 39.4 °F 41.0 °F 91% 29.96 in 10.0 mi East 6.9 mph - N/A   Mostly Cloudy
4:55 AM 43.3 °F 38.6 °F 40.8 °F 91% 29.97 in 10.0 mi East 8.1 mph - N/A   Scattered Clouds
5:15 AM 42.8 °F 38.6 °F 40.1 °F 90% 29.96 in 10.0 mi East 6.9 mph - N/A   Clear
5:35 AM 42.6 °F 37.8 °F 40.1 °F 91% 29.96 in 10.0 mi East 8.1 mph - N/A   Clear
5:55 AM 41.9 °F 37.5 °F 39.7 °F 92% 29.96 in 10.0 mi East 6.9 mph - N/A   Clear
6:15 AM 42.8 °F 38.6 °F 40.1 °F 90% 29.96 in 10.0 mi East 6.9 mph - N/A   Clear
6:35 AM 43.5 °F 40.9 °F 40.5 °F 89% 29.97 in 10.0 mi East 4.6 mph - N/A   Clear
6:55 AM 44.4 °F 40.5 °F 40.3 °F 85% 29.96 in 10.0 mi East 6.9 mph - N/A   Clear
7:15 AM 45.5 °F 42.5 °F 40.8 °F 84% 29.96 in 10.0 mi East 5.8 mph - N/A   Clear
7:35 AM 47.1 °F - 41.7 °F 81% 29.96 in 10.0 mi East 4.6 mph - N/A   Clear
7:55 AM 48.4 °F - 42.1 °F 79% 29.96 in 10.0 mi East 3.5 mph - N/A   Clear
8:15 AM 49.8 °F - 42.3 °F 75% 29.95 in 10.0 mi Calm Calm - N/A   Clear
8:35 AM 50.9 °F - 42.3 °F 72% 29.95 in 10.0 mi West 3.5 mph - N/A   Clear
8:55 AM 52.7 °F - 42.8 °F 69% 29.94 in 10.0 mi WNW 6.9 mph - N/A   Clear
9:15 AM 53.2 °F - 43.2 °F 69% 29.94 in 10.0 mi West 8.1 mph - N/A   Clear
9:35 AM 54.5 °F - 43.3 °F 66% 29.93 in 10.0 mi WSW 6.9 mph - N/A   Clear
9:55 AM 55.0 °F - 42.8 °F 63% 29.92 in 10.0 mi West 11.5 mph - N/A   Clear
10:15 AM 56.7 °F - 44.1 °F 63% 29.91 in 10.0 mi West 8.1 mph - N/A   Clear
10:35 AM 57.7 °F - 44.2 °F 61% 29.91 in 10.0 mi West 9.2 mph - N/A   Clear
10:55 AM 59.9 °F - 44.1 °F 56% 29.90 in 10.0 mi WNW 10.4 mph - N/A   Clear
11:15 AM 61.5 °F - 41.4 °F 48% 29.90 in 10.0 mi West 10.4 mph 16.1 mph N/A   Clear
11:35 AM 60.8 °F - 37.0 °F 41% 29.90 in 10.0 mi NNW 16.1 mph 20.7 mph N/A   Mostly Cloudy
11:55 AM 60.8 °F - 38.7 °F 44% 29.90 in 10.0 mi North 8.1 mph 18.4 mph N/A   Overcast
12:15 PM 60.8 °F - 38.3 °F 43% 29.89 in 10.0 mi North 13.8 mph 18.4 mph N/A   Overcast
12:35 PM 61.0 °F - 39.7 °F 46% 29.89 in 10.0 mi NNW 13.8 mph 21.9 mph N/A   Overcast
12:55 PM 60.6 °F - 39.9 °F 46% 29.88 in 10.0 mi NW 15.0 mph 20.7 mph N/A   Overcast
1:15 PM 61.7 °F - 39.6 °F 44% 29.88 in 10.0 mi NNW 12.7 mph - N/A   Overcast
1:35 PM 64.0 °F - 37.8 °F 38% 29.88 in 10.0 mi NNW 16.1 mph 24.2 mph N/A   Overcast
1:55 PM 62.8 °F - 37.9 °F 40% 29.87 in 10.0 mi North 12.7 mph 19.6 mph N/A   Overcast
2:15 PM 63.5 °F - 38.1 °F 39% 29.87 in 10.0 mi NNW 11.5 mph 19.6 mph N/A   Overcast
2:35 PM 63.1 °F - 39.7 °F 42% 29.86 in 10.0 mi North 10.4 mph - N/A   Overcast
2:55 PM 64.4 °F - 39.2 °F 40% 29.86 in 10.0 mi NW 13.8 mph 21.9 mph N/A   Overcast
3:15 PM 64.2 °F - 37.9 °F 38% 29.85 in 10.0 mi NW 16.1 mph 23.0 mph N/A   Overcast
3:35 PM 66.9 °F - 38.3 °F 35% 29.85 in 10.0 mi NW 18.4 mph 23.0 mph N/A   Overcast
3:55 PM 65.1 °F - 37.8 °F 36% 29.85 in 10.0 mi NNW 16.1 mph 26.5 mph N/A   Overcast
4:15 PM 67.6 °F - 38.3 °F 34% 29.85 in 10.0 mi North 20.7 mph 25.3 mph N/A   Mostly Cloudy
4:35 PM 68.2 °F - 39.4 °F 35% 29.85 in 10.0 mi North 12.7 mph 26.5 mph N/A   Scattered Clouds
4:55 PM 67.5 °F - 38.7 °F 35% 29.85 in 10.0 mi North 18.4 mph 25.3 mph N/A   Scattered Clouds
5:15 PM 66.6 °F - 37.8 °F 35% 29.85 in 10.0 mi North 16.1 mph 25.3 mph N/A   Scattered Clouds
5:35 PM 64.4 °F - 38.1 °F 38% 29.85 in 10.0 mi North 12.7 mph - N/A   Scattered Clouds
5:55 PM 64.0 °F - 37.4 °F 37% 29.85 in 10.0 mi North 15.0 mph 19.6 mph N/A   Mostly Cloudy
6:15 PM 65.8 °F - 37.6 °F 35% 29.85 in 10.0 mi North 11.5 mph 16.1 mph N/A   Overcast
6:35 PM 65.7 °F - 37.6 °F 36% 29.85 in 10.0 mi NNW 11.5 mph 21.9 mph N/A   Overcast
6:55 PM 64.6 °F - 37.4 °F 37% 29.85 in 10.0 mi NNW 9.2 mph 16.1 mph N/A   Mostly Cloudy
7:15 PM 63.5 °F - 37.6 °F 38% 29.86 in 10.0 mi NNW 3.5 mph 17.3 mph N/A   Clear
7:35 PM 61.5 °F - 36.5 °F 39% 29.87 in 10.0 mi Calm Calm - N/A   Clear
7:55 PM 61.2 °F - 36.5 °F 40% 29.88 in 10.0 mi NNW 5.8 mph - N/A   Clear
8:15 PM 60.4 °F - 36.7 °F 41% 29.88 in 10.0 mi West 5.8 mph - N/A   Clear
8:35 PM 58.5 °F - 37.6 °F 46% 29.89 in 10.0 mi SW 4.6 mph - N/A   Clear
8:55 PM 58.5 °F - 36.9 °F 45% 29.90 in 10.0 mi Calm Calm - N/A   Clear
9:15 PM 59.2 °F - 36.7 °F 43% 29.90 in 10.0 mi Calm Calm - N/A   Clear
9:35 PM 58.6 °F - 36.9 °F 44% 29.91 in 10.0 mi Calm Calm - N/A   Clear
9:55 PM 58.1 °F - 36.7 °F 45% 29.91 in 10.0 mi Calm Calm - N/A   Clear
10:15 PM 55.0 °F - 37.6 °F 52% 29.92 in 10.0 mi Calm Calm - N/A   Clear
10:35 PM 56.7 °F - 37.4 °F 49% 29.92 in 10.0 mi Calm Calm - N/A   Clear
10:55 PM 54.3 °F - 38.3 °F 55% 29.92 in 10.0 mi Calm Calm - N/A   Clear
11:15 PM 54.5 °F - 38.5 °F 55% 29.92 in 10.0 mi Calm Calm - N/A   Clear
11:35 PM 51.6 °F - 38.3 °F 60% 29.92 in 10.0 mi SW 3.5 mph - N/A   Clear
11:55 PM 52.5 °F - 37.8 °F 57% 29.92 in 10.0 mi SW 3.5 mph - N/A   Clear